| time (UTC) | temp F | wind direction | speed MPH | gust MPH | rain 1hr in | rain 24hr in | rain mn in | humidity % | barometer mb |
| 20260901110530 | 74 | 231 | 1.0 | 5.0 | 0.00 | 0.00 | 0.00 | 48 | 1022.4 |
| 20260901105520 | 74 | 198 | 1.0 | 10.0 | 0.00 | 0.00 | 0.00 | 47 | 1022.5 |
| 20260901104532 | 73 | 180 | 1.0 | 7.0 | 0.00 | 0.00 | 0.00 | 49 | 1022.5 |
| 20260901103532 | 73 | 118 | 0.0 | 2.0 | 0.00 | 0.00 | 0.00 | 48 | 1022.5 |
| 20260901102519 | 73 | 18 | 1.0 | 5.0 | 0.00 | 0.00 | 0.00 | 48 | 1022.6 |
| 20260901101529 | 72 | 145 | 1.0 | 5.0 | 0.00 | 0.00 | 0.00 | 47 | 1022.8 |
| 20260901100525 | 71 | 313 | 1.0 | 7.0 | 0.00 | 0.00 | 0.00 | 49 | 1022.9 |
| 20260901095516 | 70 | 99 | 1.0 | 5.0 | 0.00 | 0.00 | 0.00 | 50 | 1022.9 |
| 20260901094529 | 69 | 344 | 0.0 | 5.0 | 0.00 | 0.00 | 0.00 | 51 | 1023.1 |
| 20260901093544 | 68 | 212 | 0.0 | 2.0 | 0.00 | 0.00 | 0.00 | 58 | 1023.1 |
| 20260901092517 | 67 | 143 | 0.0 | 2.0 | 0.00 | 0.00 | 0.00 | 59 | 1023.1 |
| 20260901091530 | 66 | 158 | 0.0 | 5.0 | 0.00 | 0.00 | 0.00 | 61 | 1023.1 |
| 20260901090526 | 65 | 152 | 0.0 | 0.0 | 0.00 | 0.00 | 0.00 | 63 | 1023.0 |
| 20260901085531 | 64 | 10 | 0.0 | 5.0 | 0.00 | 0.00 | 0.00 | 64 | 1022.9 |
| 20260901084545 | 64 | 212 | 0.0 | 2.0 | 0.00 | 0.00 | 0.00 | 66 | 1022.9 |
| 20260901083531 | 63 | 173 | 0.0 | 2.0 | 0.00 | 0.00 | 0.00 | 69 | 1022.9 |
| 20260901082524 | 62 | 344 | 0.0 | 2.0 | 0.00 | 0.00 | 0.00 | 72 | 1022.8 |
| 20260901081519 | 62 | 244 | 0.0 | 2.0 | 0.00 | 0.00 | 0.00 | 74 | 1022.8 |
| 20260901080528 | 61 | 82 | 0.0 | 2.0 | 0.00 | 0.00 | 0.00 | 75 | 1022.9 |
| 20260901075517 | 59 | 90 | 0.0 | 0.0 | 0.00 | 0.00 | 0.00 | 75 | 1022.8 |
| 20260901074528 | 58 | 163 | 0.0 | 0.0 | 0.00 | 0.00 | 0.00 | 79 | 1022.7 |
| 20260901073526 | 56 | 65 | 0.0 | 0.0 | 0.00 | 0.00 | 0.00 | 83 | 1022.6 |
| 20260901072529 | 55 | 134 | 0.0 | 0.0 | 0.00 | 0.00 | 0.00 | 88 | 1022.6 |
| 20260901071604 | 54 | 229 | 0.0 | 0.0 | 0.00 | 0.00 | 0.00 | 90 | 1022.6 |
| 20260901070545 | 54 | 123 | 0.0 | 0.0 | 0.00 | 0.00 | 0.00 | 93 | 1022.5 |
| 20260901065521 | 53 | 156 | 0.0 | 0.0 | 0.00 | 0.00 | 0.00 | 94 | 1022.5 |
| 20260901064119 | 53 | 249 | 0.0 | 0.0 | 0.00 | 0.00 | 0.00 | 94 | 1022.5 |
| 20260901063027 | 52 | 64 | 0.0 | 0.0 | 0.00 | 0.00 | 0.00 | 94 | 1022.4 |
| 20260901062023 | 52 | 112 | 0.0 | 0.0 | 0.00 | 0.00 | 0.00 | 95 | 1022.4 |
| 20260901061016 | 52 | 133 | 0.0 | 0.0 | 0.00 | 0.00 | 0.00 | 95 | 1022.3 |
| 20260901060018 | 51 | 65 | 0.0 | 0.0 | 0.00 | 0.00 | 0.00 | 95 | 1022.2 |
| 20260901055029 | 51 | 72 | 0.0 | 0.0 | 0.00 | 0.00 | 0.00 | 95 | 1022.1 |
| 20260901054024 | 51 | 72 | 0.0 | 0.0 | 0.00 | 0.00 | 0.00 | 95 | 1022.1 |
| 20260901053016 | 51 | 71 | 0.0 | 0.0 | 0.00 | 0.00 | 0.00 | 94 | 1022.1 |
| 20260901052028 | 50 | 82 | 0.0 | 0.0 | 0.00 | 0.00 | 0.00 | 94 | 1022.0 |
| 20260901051023 | 50 | 66 | 0.0 | 0.0 | 0.00 | 0.00 | 0.00 | 94 | 1021.8 |
| 20260901050029 | 50 | 79 | 0.0 | 0.0 | 0.00 | 0.00 | 0.00 | 94 | 1021.8 |
| 20260901045036 | 50 | 67 | 0.0 | 0.0 | 0.00 | 0.00 | 0.00 | 93 | 1021.8 |
| 20260901044018 | 50 | 65 | 0.0 | 0.0 | 0.00 | 0.00 | 0.00 | 93 | 1021.8 |
| 20260901043030 | 50 | 69 | 0.0 | 0.0 | 0.00 | 0.00 | 0.00 | 93 | 1021.6 |
| 20260901042023 | 50 | 79 | 0.0 | 0.0 | 0.00 | 0.00 | 0.00 | 93 | 1021.7 |
| 20260901041016 | 51 | 65 | 0.0 | 0.0 | 0.00 | 0.00 | 0.00 | 92 | 1021.5 |
| 20260901040027 | 51 | 65 | 0.0 | 0.0 | 0.00 | 0.00 | 0.00 | 92 | 1021.6 |
| 20260901035025 | 51 | 68 | 0.0 | 0.0 | 0.00 | 0.00 | 0.00 | 92 | 1021.4 |
| 20260901034027 | 51 | 71 | 0.0 | 0.0 | 0.00 | 0.00 | 0.00 | 91 | 1021.6 |
| 20260901033019 | 52 | 104 | 0.0 | 0.0 | 0.00 | 0.00 | 0.00 | 91 | 1021.4 |
| 20260901032112 | 52 | 84 | 0.0 | 0.0 | 0.00 | 0.00 | 0.00 | 90 | 1021.4 |
| 20260901031023 | 52 | 95 | 0.0 | 0.0 | 0.00 | 0.00 | 0.00 | 90 | 1021.4 |
| 20260901030020 | 53 | 93 | 0.0 | 0.0 | 0.00 | 0.00 | 0.00 | 89 | 1021.3 |
| 20260901025017 | 53 | 102 | 0.0 | 0.0 | 0.00 | 0.00 | 0.00 | 89 | 1021.3 |
| 20260901024026 | 54 | 103 | 0.0 | 0.0 | 0.00 | 0.00 | 0.00 | 88 | 1021.4 |
| 20260901023015 | 54 | 95 | 0.0 | 0.0 | 0.00 | 0.00 | 0.00 | 87 | 1021.5 |
| 20260901022029 | 55 | 103 | 0.0 | 0.0 | 0.00 | 0.00 | 0.00 | 86 | 1021.5 |
| 20260901021024 | 55 | 83 | 0.0 | 0.0 | 0.00 | 0.00 | 0.00 | 85 | 1021.5 |
| 20260901020018 | 56 | 102 | 0.0 | 0.0 | 0.00 | 0.00 | 0.00 | 84 | 1021.3 |
| 20260901015027 | 56 | 187 | 0.0 | 2.0 | 0.00 | 0.00 | 0.00 | 84 | 1021.4 |
| 20260901014024 | 56 | 293 | 0.0 | 0.0 | 0.00 | 0.00 | 0.00 | 83 | 1021.3 |
| 20260901013015 | 56 | 82 | 0.0 | 0.0 | 0.00 | 0.00 | 0.00 | 82 | 1021.5 |
| 20260901012109 | 57 | 44 | 0.0 | 2.0 | 0.00 | 0.00 | 0.00 | 81 | 1021.4 |
| 20260901011044 | 57 | 34 | 0.0 | 0.0 | 0.00 | 0.00 | 0.00 | 80 | 1021.3 |
| 20260901010018 | 58 | 341 | 0.0 | 2.0 | 0.00 | 0.00 | 0.00 | 79 | 1021.2 |
| 20260901005028 | 58 | 16 | 0.0 | 0.0 | 0.00 | 0.00 | 0.00 | 78 | 1021.3 |
| 20260901004024 | 59 | 40 | 0.0 | 0.0 | 0.00 | 0.00 | 0.00 | 77 | 1021.2 |
| 20260901003016 | 60 | 31 | 0.0 | 0.0 | 0.00 | 0.00 | 0.00 | 75 | 1021.1 |
| 20260901002028 | 60 | 309 | 0.0 | 5.0 | 0.00 | 0.00 | 0.00 | 75 | 1021.1 |
| 20260901001023 | 60 | 288 | 1.0 | 5.0 | 0.00 | 0.00 | 0.00 | 74 | 1021.2 |
| 20260901000031 | 61 | 275 | 0.0 | 2.0 | 0.00 | 0.00 | 0.00 | 73 | 1021.0 |
| 20260831235023 | 61 | 303 | 1.0 | 7.0 | 0.00 | 0.00 | 0.00 | 72 | 1021.1 |
| 20260831234030 | 62 | 321 | 1.0 | 7.0 | 0.00 | 0.00 | 0.00 | 71 | 1020.9 |
| 20260831233017 | 62 | 285 | 0.0 | 5.0 | 0.00 | 0.00 | 0.00 | 71 | 1021.0 |
| 20260831232045 | 62 | 312 | 0.0 | 5.0 | 0.00 | 0.00 | 0.00 | 70 | 1020.8 |
| 20260831231039 | 63 | 310 | 0.0 | 2.0 | 0.00 | 0.00 | 0.00 | 70 | 1020.9 |
| 20260831230017 | 63 | 313 | 1.0 | 5.0 | 0.00 | 0.00 | 0.00 | 69 | 1020.7 |
| 20260831225029 | 63 | 307 | 0.0 | 2.0 | 0.00 | 0.00 | 0.00 | 69 | 1020.7 |
| 20260831224023 | 63 | 309 | 1.0 | 5.0 | 0.00 | 0.00 | 0.00 | 68 | 1020.8 |
| 20260831223055 | 63 | 322 | 1.0 | 5.0 | 0.00 | 0.00 | 0.00 | 67 | 1020.8 |
| 20260831222027 | 63 | 299 | 1.0 | 7.0 | 0.00 | 0.00 | 0.00 | 69 | 1020.7 |
| 20260831221025 | 62 | 296 | 1.0 | 5.0 | 0.00 | 0.00 | 0.00 | 72 | 1020.6 |
| 20260831220017 | 62 | 62 | 0.0 | 0.0 | 0.00 | 0.00 | 0.00 | 72 | 1020.5 |
| 20260831215028 | 62 | 293 | 0.0 | 2.0 | 0.00 | 0.00 | 0.00 | 72 | 1020.5 |
| 20260831214043 | 63 | 355 | 0.0 | 2.0 | 0.00 | 0.00 | 0.00 | 73 | 1020.3 |
| 20260831213016 | 63 | 76 | 0.0 | 0.0 | 0.00 | 0.00 | 0.00 | 73 | 1020.3 |
| 20260831212028 | 63 | 294 | 0.0 | 5.0 | 0.00 | 0.00 | 0.00 | 72 | 1020.2 |
| 20260831211023 | 64 | 322 | 0.0 | 2.0 | 0.00 | 0.00 | 0.00 | 71 | 1020.0 |
| 20260831210016 | 64 | 14 | 0.0 | 5.0 | 0.00 | 0.00 | 0.00 | 71 | 1020.0 |
| 20260831205027 | 64 | 338 | 0.0 | 2.0 | 0.00 | 0.00 | 0.00 | 71 | 1019.9 |
| 20260831204023 | 64 | 53 | 0.0 | 0.0 | 0.00 | 0.00 | 0.00 | 70 | 1019.7 |
| 20260831203017 | 64 | 14 | 0.0 | 0.0 | 0.00 | 0.00 | 0.00 | 71 | 1019.6 |
| 20260831202028 | 64 | 284 | 0.0 | 2.0 | 0.00 | 0.00 | 0.00 | 71 | 1019.5 |
| 20260831201023 | 64 | 288 | 0.0 | 5.0 | 0.00 | 0.00 | 0.00 | 71 | 1019.4 |
| 20260831200017 | 65 | 64 | 0.0 | 0.0 | 0.00 | 0.00 | 0.00 | 71 | 1019.3 |
| 20260831195029 | 65 | 137 | 0.0 | 0.0 | 0.00 | 0.00 | 0.00 | 70 | 1019.0 |
| 20260831194043 | 66 | 282 | 0.0 | 2.0 | 0.00 | 0.00 | 0.00 | 69 | 1018.9 |
| 20260831193018 | 66 | 247 | 0.0 | 2.0 | 0.00 | 0.00 | 0.00 | 68 | 1018.8 |
| 20260831192027 | 67 | 329 | 0.0 | 5.0 | 0.00 | 0.00 | 0.00 | 67 | 1018.5 |
| 20260831191023 | 67 | 316 | 1.0 | 5.0 | 0.00 | 0.00 | 0.00 | 67 | 1018.5 |
| 20260831190029 | 67 | 288 | 0.0 | 5.0 | 0.00 | 0.00 | 0.00 | 66 | 1018.4 |
| 20260831185023 | 68 | 302 | 0.0 | 7.0 | 0.00 | 0.00 | 0.00 | 65 | 1018.3 |
| 20260831184039 | 68 | 303 | 0.0 | 7.0 | 0.00 | 0.00 | 0.00 | 64 | 1018.3 |
| 20260831183026 | 69 | 310 | 1.0 | 12.0 | 0.00 | 0.00 | 0.00 | 63 | 1018.1 |
| 20260831182043 | 70 | 320 | 1.0 | 15.0 | 0.00 | 0.00 | 0.00 | 62 | 1018.0 |
| 20260831181037 | 71 | 274 | 2.0 | 12.0 | 0.00 | 0.00 | 0.00 | 64 | 1017.8 |
| 20260831180027 | 71 | 325 | 2.0 | 10.0 | 0.00 | 0.00 | 0.00 | 62 | 1017.5 |
| 20260831175031 | 71 | 330 | 2.0 | 10.0 | 0.00 | 0.00 | 0.00 | 59 | 1017.4 |
| 20260831174028 | 72 | 320 | 2.0 | 12.0 | 0.00 | 0.00 | 0.00 | 59 | 1017.4 |
| 20260831173018 | 72 | 329 | 2.0 | 10.0 | 0.00 | 0.00 | 0.00 | 59 | 1017.1 |
| 20260831172017 | 72 | 328 | 3.0 | 10.0 | 0.00 | 0.00 | 0.00 | 59 | 1017.0 |
| 20260831171029 | 73 | 294 | 2.0 | 10.0 | 0.00 | 0.00 | 0.00 | 60 | 1016.9 |
| 20260831170023 | 74 | 316 | 2.0 | 10.0 | 0.00 | 0.00 | 0.00 | 60 | 1016.7 |
| 20260831165016 | 75 | 316 | 0.0 | 5.0 | 0.00 | 0.00 | 0.00 | 59 | 1016.5 |
| 20260831164029 | 76 | 273 | 1.0 | 5.0 | 0.00 | 0.00 | 0.00 | 57 | 1016.4 |
| 20260831163103 | 77 | 263 | 1.0 | 7.0 | 0.00 | 0.00 | 0.00 | 54 | 1016.2 |
| 20260831162021 | 78 | 296 | 2.0 | 7.0 | 0.00 | 0.00 | 0.00 | 51 | 1016.3 |
| 20260831161023 | 78 | 282 | 2.0 | 10.0 | 0.00 | 0.00 | 0.00 | 51 | 1016.3 |
| 20260831160031 | 79 | 327 | 2.0 | 12.0 | 0.00 | 0.00 | 0.00 | 51 | 1016.1 |
| 20260831155027 | 78 | 256 | 2.0 | 12.0 | 0.00 | 0.00 | 0.00 | 47 | 1016.0 |
| 20260831154023 | 76 | 309 | 2.0 | 12.0 | 0.00 | 0.00 | 0.00 | 45 | 1015.8 |
| 20260831153036 | 74 | 319 | 2.0 | 10.0 | 0.00 | 0.00 | 0.00 | 50 | 1015.7 |
| 20260831152029 | 73 | 346 | 1.0 | 5.0 | 0.00 | 0.00 | 0.00 | 56 | 1015.6 |
| 20260831151022 | 73 | 318 | 1.0 | 7.0 | 0.00 | 0.00 | 0.00 | 57 | 1015.6 |
| 20260831150047 | 74 | 328 | 2.0 | 7.0 | 0.00 | 0.00 | 0.00 | 57 | 1015.6 |
| 20260831145022 | 75 | 318 | 1.0 | 12.0 | 0.00 | 0.00 | 0.00 | 55 | 1015.5 |
| 20260831144031 | 75 | 302 | 1.0 | 12.0 | 0.00 | 0.00 | 0.00 | 54 | 1015.4 |
| 20260831143028 | 75 | 322 | 2.0 | 10.0 | 0.00 | 0.00 | 0.00 | 51 | 1015.3 |
| 20260831142026 | 76 | 328 | 1.0 | 5.0 | 0.00 | 0.00 | 0.00 | 53 | 1015.3 |
| 20260831141016 | 77 | 302 | 2.0 | 10.0 | 0.00 | 0.00 | 0.00 | 53 | 1015.1 |
| 20260831140027 | 78 | 308 | 2.0 | 12.0 | 0.00 | 0.00 | 0.00 | 51 | 1015.0 |
| 20260831135023 | 76 | 302 | 1.0 | 7.0 | 0.00 | 0.00 | 0.00 | 49 | 1014.8 |
| 20260831134016 | 75 | 302 | 2.0 | 7.0 | 0.00 | 0.00 | 0.00 | 53 | 1014.8 |
| 20260831133029 | 75 | 304 | 2.0 | 7.0 | 0.00 | 0.00 | 0.00 | 55 | 1014.9 |
| 20260831132023 | 74 | 3 | 2.0 | 12.0 | 0.00 | 0.00 | 0.00 | 56 | 1014.8 |
| 20260831131016 | 73 | 9 | 1.0 | 10.0 | 0.00 | 0.00 | 0.00 | 57 | 1014.7 |
| 20260831130027 | 73 | 325 | 3.0 | 7.0 | 0.00 | 0.00 | 0.00 | 60 | 1014.7 |
| 20260831125023 | 73 | 302 | 2.0 | 12.0 | 0.00 | 0.01 | 0.00 | 60 | 1014.6 |
| 20260831124017 | 73 | 332 | 2.0 | 10.0 | 0.00 | 0.01 | 0.00 | 58 | 1014.4 |
| 20260831123026 | 72 | 332 | 2.0 | 12.0 | 0.00 | 0.01 | 0.00 | 57 | 1014.3 |
| 20260831122024 | 72 | 285 | 4.0 | 12.0 | 0.00 | 0.01 | 0.00 | 60 | 1014.2 |
| 20260831121016 | 72 | 301 | 2.0 | 10.0 | 0.00 | 0.01 | 0.00 | 62 | 1014.1 |
| 20260831120023 | 73 | 330 | 3.0 | 10.0 | 0.00 | 0.01 | 0.00 | 63 | 1013.8 |
| 20260831115038 | 72 | 318 | 3.0 | 12.0 | 0.00 | 0.01 | 0.00 | 58 | 1013.6 |
| 20260831114109 | 71 | 353 | 2.0 | 7.0 | 0.00 | 0.01 | 0.00 | 58 | 1013.5 |
| 20260831112024 | 70 | 337 | 3.0 | 5.0 | 0.00 | 0.01 | 0.00 | 63 | 1013.2 |
| 20260831111523 | 70 | 301 | 3.0 | 12.0 | 0.00 | 0.01 | 0.00 | 64 | 1013.3 |